Meath Environmental Platform

Observations for Trim Patrick St

Time AQI Temp °C Hum % Pres Pa CO μg/m³ H₂S μg/m³ NO μg/m³ NO₂ μg/m³ O₃ μg/m³ SO₂ μg/m³ PM1 μg/m³ PM2.5 μg/m³ PM10 μg/m³
Friday 28 August 2026
03:43 3 16.5 88 38,460 0.16 1.21 1.71 12.13 37.97 0 10.57 15.64 17.2
03:42 3 16.5 88 38,460 0.16 1.58 1.82 14.42 27.06 0 13.14 19.74 21.71
03:41 3 16.5 88 38,460 0.16 0.58 2 12.02 37.06 0 9.71 14.27 15.7
03:39 3 16.5 88 38,460 0.16 0.43 1.75 12.57 34.91 0 9.71 16.31 17.94
03:38 3 16.5 88 38,460 0.17 0.43 1.63 12.46 34.06 0 9.71 14.96 16.45
03:37 3 16.5 88 38,460 0.16 0.32 1.68 11.79 35.57 0 9.71 13.59 14.95
03:35 3 16.5 88 38,460 0.16 0.25 1.58 12.24 38.63 0 12.29 17.69 19.46
03:34 3 16.5 88 38,460 0.16 0.27 1.86 12.02 36.79 0 11.43 17.01 18.71
03:33 3 16.5 88 38,460 0.15 0.3 1.86 12.02 35.33 0 10.57 16.32 17.96
03:32 3 16.5 88 38,460 0.17 0.38 1.8 12.25 38.56 0 9.71 15.63 17.19
03:31 3 16.5 88 38,460 0.16 0.64 2.41 11.79 37.93 0 10.57 15.64 17.2
03:30 3 16.5 88 38,460 0.16 0.53 2.11 11.9 37.89 0 9.71 13.59 14.95
03:29 3 16.5 88 38,460 0.16 0.74 1.53 12.78 36.34 0 10.57 17.69 19.46
03:28 3 16.5 88 38,460 0.16 0.32 1.51 12.24 36.04 0 8.86 14.27 15.7
03:27 3 16.5 88 38,460 0.16 0.4 1.48 12.02 35.81 0 9.71 13.59 14.95
03:26 3 16.5 88 38,460 0.15 1.45 1.46 13.21 40.6 0 12.29 17.01 18.71
03:25 3 16.5 88 38,460 0.15 0.56 1.46 12.34 35.01 0 8 14.96 16.45
03:23 3 16.5 88 38,460 0.15 1.34 1.75 13.1 36.45 0 11.43 17.01 18.71
03:22 3 16.5 88 38,460 0.15 1.52 1.76 13.68 33.04 0 12.29 16.32 17.96
03:21 3 16.5 88 38,460 0.15 1.08 1.53 13.21 32.61 0 10.57 17.01 18.71